Juneau, WI

2:13 PM CST on January 22, 2018 (GMT -0600)
Dodge County

Weather History for KUNU - August, 2013

Change the Weather History Date:

Thursday, August 29, 2013

  Actual Average Record
Temperature  
Mean Temperature 74 °F -  
Max Temperature 86 °F 76 °F 91 °F (1973)
Min Temperature 61 °F 56 °F 35 °F (2005)
Cooling Degree Days 8    
Growing Degree Days 24 (Base 50)    
Moisture  
Dew Point 63 °F    
Average Humidity 70    
Maximum Humidity 100    
Minimum Humidity 38    
Precipitation  
Precipitation 0.00 in - - ()
Sea Level Pressure  
Sea Level Pressure 30.06 in    
Wind  
Wind Speed 3 mph (SSE)    
Max Wind Speed 14 mph    
Max Gust Speed 17 mph    
Visibility 8 miles    
Events Fog    
Averages and records for this station are not official NWS values.
T = Trace of Precipitation, MM = Missing Value Source: NWS Daily Summary

Daily Weather History Graph

Daily Weather History Graph

Search for Another Location

Airport or City:

Trip Planner

Search our weather history database for the weather conditions in past years. The results will help you decide how hot, cold, wet, or windy it might be!

Date:

Astronomy

Aug. 29, 2013 Rise Set
Actual Time 6:15 AM CDT 7:34 PM CDT
Civil Twilight 5:46 AM CDT 8:04 PM CDT
Nautical Twilight 5:10 AM CDT 8:39 PM CDT
Astronomical Twilight 4:32 AM CDT 9:17 PM CDT
Moon 12:01 AM CDT (8/29) 3:08 PM CDT (8/29)
Length of Visible Light 14h 18m
Length of Day
13h 19m
Last Quarter, 38% of the Moon is Illuminated
Aug 29
Last Quarter
Sep 5
New
Sep 12
First Quarter
Sep 19
Full
Sep 26
Last Quarter

Hourly Weather History & Observations

Time (CDT) Temp. Heat Index Dew Point Humidity Pressure Visibility Wind Dir Wind Speed Gust Speed Precip Events Conditions
12:15 AM 66.7 °F - 64.4 °F 92% 30.07 in 10.0 mi Calm Calm - N/A   Clear
12:35 AM 65.8 °F - 63.1 °F 91% 30.07 in 7.0 mi Calm Calm - N/A   Clear
12:55 AM 66.6 °F - 64.2 °F 92% 30.07 in 10.0 mi Calm Calm - N/A   Clear
1:15 AM 67.5 °F - 64.4 °F 90% 30.07 in 10.0 mi ESE 3.5 mph - N/A   Clear
1:35 AM 64.8 °F - 62.6 °F 93% 30.07 in 5.0 mi Calm Calm - N/A   Clear
1:55 AM 65.3 °F - 64.2 °F 96% 30.07 in 7.0 mi Calm Calm - N/A   Clear
2:15 AM 64.2 °F - 63.0 °F 96% 30.07 in 7.0 mi Calm Calm - N/A   Clear
2:35 AM 64.6 °F - 63.9 °F 98% 30.07 in 7.0 mi Calm Calm - N/A   Clear
2:55 AM 63.5 °F - 62.6 °F 97% 30.08 in 5.0 mi Calm Calm - N/A   Clear
3:15 AM 64.4 °F - 64.0 °F 99% 30.08 in 4.0 mi Calm Calm - N/A   Clear
3:35 AM 64.6 °F - 64.4 °F 99% 30.08 in 3.0 mi Calm Calm - N/A   Clear
3:55 AM 63.9 °F - 63.7 °F 99% 30.07 in 3.0 mi Calm Calm - N/A   Clear
4:15 AM 64.2 °F - 64.0 °F 99% 30.08 in 7.0 mi Calm Calm - N/A   Clear
4:35 AM 63.5 °F - 63.1 °F 99% 30.08 in 4.0 mi Calm Calm - N/A   Clear
4:55 AM 62.2 °F - 62.1 °F 99% 30.09 in 1.8 mi Calm Calm - N/A   Mist
5:15 AM 63.3 °F - 63.3 °F 100% 30.08 in 2.0 mi Calm Calm - N/A   Clear
5:35 AM 62.6 °F - 62.6 °F 100% 30.08 in 0.5 mi Calm Calm - N/A Fog Fog
5:55 AM 62.6 °F - 62.6 °F 100% 30.09 in 0.2 mi Calm Calm - N/A Fog Fog
6:15 AM 61.5 °F - 61.5 °F 100% 30.10 in 0.8 mi Calm Calm - N/A   Mostly Cloudy
6:35 AM 63.3 °F - 63.3 °F 100% 30.10 in 2.0 mi NNE 3.5 mph - N/A   Scattered Clouds
6:55 AM 64.6 °F - 64.6 °F 100% 30.10 in 3.0 mi ENE 4.6 mph - N/A   Clear
7:15 AM 65.5 °F - 65.5 °F 100% 30.10 in 3.0 mi NNE 3.5 mph - N/A   Clear
7:35 AM 66.2 °F - 66.2 °F 100% 30.11 in 5.0 mi Calm Calm - N/A   Clear
7:55 AM 67.1 °F - 67.1 °F 100% 30.11 in 5.0 mi Calm Calm - N/A   Clear
8:15 AM 69.3 °F - 67.8 °F 95% 30.11 in 7.0 mi Calm Calm - N/A   Clear
8:55 AM 71.2 °F - 65.3 °F 81% 30.11 in 10.0 mi Calm Calm - N/A   Clear
9:15 AM 72.9 °F - 63.5 °F 72% 30.11 in 10.0 mi Calm Calm - N/A   Clear
9:35 AM 73.6 °F - 63.5 °F 71% 30.12 in 10.0 mi Calm Calm - N/A   Clear
9:55 AM 75.6 °F - 64.0 °F 67% 30.12 in 10.0 mi Calm Calm - N/A   Clear
10:15 AM 77.2 °F - 63.9 °F 63% 30.11 in 10.0 mi SE 4.6 mph - N/A   Clear
10:35 AM 79.0 °F - 63.7 °F 59% 30.11 in 10.0 mi SE 6.9 mph - N/A   Clear
10:55 AM 80.8 °F 82.1 °F 63.1 °F 55% 30.11 in 10.0 mi SSW 6.9 mph - N/A   Clear
11:15 AM 81.7 °F 82.9 °F 63.1 °F 53% 30.11 in 10.0 mi SSE 6.9 mph - N/A   Clear
11:35 AM 81.7 °F 82.4 °F 61.3 °F 50% 30.11 in 10.0 mi South 6.9 mph - N/A   Clear
11:55 AM 82.6 °F 82.9 °F 60.6 °F 47% 30.10 in 10.0 mi SSE 8.1 mph - N/A   Clear
12:15 PM 83.5 °F 83.6 °F 60.3 °F 45% 30.10 in 10.0 mi South 8.1 mph - N/A   Clear
12:35 PM 84.2 °F 83.8 °F 58.8 °F 42% 30.09 in 10.0 mi SSE 9.2 mph - N/A   Clear
12:55 PM 84.2 °F 84.2 °F 59.9 °F 44% 30.09 in 10.0 mi SSW 13.8 mph - N/A   Clear
1:15 PM 84.0 °F 84.0 °F 59.9 °F 44% 30.08 in 10.0 mi SW 11.5 mph 17.3 mph N/A   Clear
1:35 PM 84.2 °F 84.0 °F 59.7 °F 43% 30.08 in 10.0 mi SW 8.1 mph - N/A   Clear
1:55 PM 84.9 °F 84.6 °F 59.2 °F 42% 30.07 in 10.0 mi South 10.4 mph 17.3 mph N/A   Clear
2:15 PM 85.8 °F 85.4 °F 59.4 °F 41% 30.06 in 10.0 mi South 9.2 mph - N/A   Clear
2:35 PM 85.3 °F 85.2 °F 60.3 °F 43% 30.05 in 10.0 mi South 10.4 mph 16.1 mph N/A   Clear
2:55 PM 85.6 °F 85.2 °F 59.4 °F 41% 30.05 in 10.0 mi SSE 9.2 mph - N/A   Clear
3:15 PM 85.8 °F 85.4 °F 59.5 °F 41% 30.05 in 10.0 mi South 10.4 mph - N/A   Clear
3:35 PM 85.6 °F 85.2 °F 59.4 °F 41% 30.04 in 10.0 mi South 9.2 mph - N/A   Clear
3:55 PM 85.8 °F 85.2 °F 59.0 °F 40% 30.04 in 10.0 mi SE 6.9 mph - N/A   Clear
4:15 PM 86.0 °F 85.0 °F 57.6 °F 38% 30.04 in 10.0 mi South 3.5 mph - N/A   Clear
4:35 PM 86.0 °F 85.2 °F 58.1 °F 39% 30.03 in 10.0 mi South 6.9 mph - N/A   Clear
4:55 PM 85.5 °F 85.0 °F 59.4 °F 41% 30.03 in 10.0 mi South 10.4 mph - N/A   Clear
5:15 PM 85.5 °F 85.2 °F 59.9 °F 42% 30.02 in 10.0 mi South 6.9 mph - N/A   Clear
5:35 PM 84.7 °F 84.8 °F 60.4 °F 44% 30.02 in 10.0 mi SSW 9.2 mph - N/A   Clear
5:55 PM 84.7 °F 84.6 °F 60.3 °F 43% 30.01 in 10.0 mi SSE 9.2 mph - N/A   Clear
6:15 PM 84.2 °F 84.4 °F 60.6 °F 45% 30.01 in 10.0 mi South 9.2 mph - N/A   Clear
6:35 PM 83.3 °F 83.7 °F 61.3 °F 47% 30.01 in 10.0 mi South 6.9 mph - N/A   Clear
6:55 PM 82.0 °F 83.0 °F 62.1 °F 51% 30.01 in 10.0 mi South 5.8 mph - N/A   Clear
7:15 PM 80.6 °F 81.8 °F 62.6 °F 54% 30.01 in 10.0 mi South 4.6 mph - N/A   Clear
7:35 PM 79.7 °F - 62.8 °F 56% 30.01 in 10.0 mi SSW 3.5 mph - N/A   Clear
7:55 PM 78.8 °F - 62.8 °F 58% 30.01 in 10.0 mi South 4.6 mph - N/A   Clear
8:15 PM 76.8 °F - 64.8 °F 66% 30.01 in 10.0 mi SE 5.8 mph - N/A   Clear
8:35 PM 77.2 °F - 64.4 °F 65% 30.01 in 10.0 mi SSE 6.9 mph - N/A   Clear
8:55 PM 76.1 °F - 65.3 °F 69% 30.01 in 10.0 mi SSE 6.9 mph - N/A   Clear
9:15 PM 75.6 °F - 65.3 °F 70% 30.01 in 10.0 mi SSE 5.8 mph - N/A   Clear
9:35 PM 74.8 °F - 65.3 °F 72% 30.01 in 10.0 mi SSE 8.1 mph - N/A   Clear
9:55 PM 74.3 °F - 64.8 °F 72% 30.01 in 10.0 mi SSE 8.1 mph - N/A   Clear
10:15 PM 73.6 °F - 64.4 °F 73% 30.00 in 10.0 mi SSE 8.1 mph - N/A   Clear
10:35 PM 73.4 °F - 63.9 °F 72% 30.01 in 10.0 mi SSE 9.2 mph - N/A   Clear
10:55 PM 72.5 °F - 63.9 °F 74% 30.01 in 10.0 mi SSE 5.8 mph - N/A   Clear
11:15 PM 72.0 °F - 63.7 °F 75% 30.00 in 10.0 mi SSE 6.9 mph - N/A   Clear
11:35 PM 71.6 °F - 63.5 °F 76% 30.01 in 10.0 mi SE 5.8 mph - N/A   Clear
11:55 PM 69.8 °F - 63.9 °F 81% 30.00 in 10.0 mi SE 5.8 mph - N/A   Clear